Location: Arbon
(43.0005°N, 0.7472°E)
Time: 10:48:59
(UTC+00:00)

SJ 16-02 - Pass Details

Date: 22 April 2026
Orbit: 582 x 592 km, 75.0° (Epoch: 15 May)

Event Time Altitude Azimuth Distance (km) Brightness Sun altitude
Rises 21:35:50 0° 351° (N) 2,821 5.7 -26.0°
Reaches altitude 10° 21:38:19 10° 3° (N) 1,914 4.5 -26.3°
Enters shadow 21:40:50 25° 34° (NE) 1,211 3.0 -26.6°
